Location: Demmingen
(48.6757°N, 10.4375°E)
Time: 10:32:26
(UTC+00:00)

COSMOS 2406 - Pass Details

Date: 23 May 2024
Orbit: 844 x 862 km, 71.0° (Epoch: 15 June)

Event Time Altitude Azimuth Distance (km) Brightness Sun altitude
Exits shadow 01:19:31 18° 242° (WSW) 1,990 4.6 -15.3°
Maximum altitude 01:23:30 44° 307° (NW) 1,176 4.0 -15.0°
Drops below altitude 10° 01:29:01 10° 19° (NNE) 2,509 7.0 -14.5°
Sets 01:31:36 0° 26° (NNE) 3,448 8.3 -14.3°
